TimeAKST,TemperatureF,Dew PointF,Humidity,Sea Level PressureIn,VisibilityMPH,Wind Direction,Wind SpeedMPH,Gust SpeedMPH,PrecipitationIn,Events,Conditions,WindDirDegrees,DateUTC
12:16 AM,42.8,42.8,100,29.52,7.0,Calm,Calm,-,N/A,,Overcast,0,2013-11-25 09:16:00
12:36 AM,42.8,42.8,100,29.52,4.0,Calm,Calm,-,N/A,,Overcast,0,2013-11-25 09:36:00
12:56 AM,42.8,42.8,100,29.52,8.0,Calm,Calm,-,N/A,,Overcast,0,2013-11-25 09:56:00
1:16 AM,42.8,42.8,100,29.52,5.0,Calm,Calm,-,N/A,,Overcast,0,2013-11-25 10:16:00
1:36 AM,42.8,42.8,100,29.52,5.0,Calm,Calm,-,N/A,,Overcast,0,2013-11-25 10:36:00
1:56 AM,42.8,42.8,100,29.52,3.0,Calm,Calm,-,N/A,,Overcast,0,2013-11-25 10:56:00
2:16 AM,42.8,42.8,100,29.52,3.0,Calm,Calm,-,N/A,,Overcast,0,2013-11-25 11:16:00
2:36 AM,42.8,41.0,93,29.52,2.5,Calm,Calm,-,N/A,,Overcast,0,2013-11-25 11:36:00
2:56 AM,42.8,41.0,93,29.53,5.0,Calm,Calm,-,N/A,,Overcast,0,2013-11-25 11:56:00
3:16 AM,42.8,41.0,93,29.52,9.0,Calm,Calm,-,N/A,,Overcast,0,2013-11-25 12:16:00
3:36 AM,42.8,42.8,100,29.53,10.0,Calm,Calm,-,N/A,,Overcast,0,2013-11-25 12:36:00
3:56 AM,42.8,42.8,100,29.53,6.0,Calm,Calm,-,N/A,,Overcast,0,2013-11-25 12:56:00
4:16 AM,42.8,42.8,100,29.53,7.0,Calm,Calm,-,N/A,,Overcast,0,2013-11-25 13:16:00
4:36 AM,42.8,42.8,100,29.53,10.0,Calm,Calm,-,N/A,,Overcast,0,2013-11-25 13:36:00
4:56 AM,42.8,42.8,100,29.53,10.0,Calm,Calm,-,N/A,,Overcast,0,2013-11-25 13:56:00
5:16 AM,42.8,42.8,100,29.53,10.0,NE,3.5,-,N/A,,Mostly Cloudy,50,2013-11-25 14:16:00
5:36 AM,42.8,42.8,100,29.53,10.0,NE,4.6,-,N/A,,Overcast,40,2013-11-25 14:36:00
5:56 AM,42.8,42.8,100,29.54,10.0,NNE,3.5,-,N/A,,Overcast,30,2013-11-25 14:56:00
6:16 AM,41.0,39.2,93,29.54,10.0,NNE,8.1,-,N/A,,Overcast,30,2013-11-25 15:16:00
6:36 AM,41.0,41.0,100,29.54,10.0,NNE,6.9,-,N/A,,Overcast,20,2013-11-25 15:36:00
6:56 AM,41.0,41.0,100,29.55,10.0,NNE,9.2,-,N/A,,Overcast,20,2013-11-25 15:56:00
7:16 AM,41.0,41.0,100,29.55,10.0,North,11.5,-,N/A,,Overcast,10,2013-11-25 16:16:00
7:36 AM,39.2,39.2,100,29.55,10.0,NNE,8.1,-,N/A,,Overcast,20,2013-11-25 16:36:00
7:56 AM,39.2,39.2,100,29.56,10.0,NNE,8.1,-,N/A,,Overcast,20,2013-11-25 16:56:00
8:16 AM,39.2,39.2,100,29.56,10.0,NNE,9.2,-,N/A,,Overcast,20,2013-11-25 17:16:00
8:36 AM,39.2,39.2,100,29.56,10.0,North,10.4,-,N/A,,Overcast,10,2013-11-25 17:36:00
8:56 AM,39.2,39.2,100,29.57,10.0,NNE,6.9,-,N/A,,Overcast,20,2013-11-25 17:56:00
9:16 AM,39.2,39.2,100,29.57,10.0,NNE,9.2,-,N/A,,Overcast,20,2013-11-25 18:16:00
9:36 AM,39.2,39.2,100,29.58,4.0,NNE,9.2,-,N/A,,Overcast,20,2013-11-25 18:36:00
9:56 AM,39.2,39.2,100,29.59,2.0,NNE,6.9,-,N/A,,Overcast,20,2013-11-25 18:56:00
10:16 AM,39.2,39.2,100,29.59,2.0,NNE,8.1,-,N/A,,Overcast,30,2013-11-25 19:16:00
10:36 AM,39.2,39.2,100,29.60,9.0,NNE,8.1,-,N/A,,Overcast,20,2013-11-25 19:36:00
10:56 AM,39.2,39.2,100,29.60,10.0,NNE,10.4,-,N/A,,Overcast,20,2013-11-25 19:56:00
11:16 AM,39.2,37.4,93,29.60,10.0,North,12.7,-,N/A,,Overcast,350,2013-11-25 20:16:00
11:36 AM,39.2,39.2,100,29.61,10.0,North,10.4,-,N/A,,Overcast,350,2013-11-25 20:36:00
11:56 AM,41.0,39.2,93,29.61,10.0,North,10.4,-,N/A,,Overcast,360,2013-11-25 20:56:00
12:16 PM,41.0,39.2,93,29.61,10.0,North,11.5,-,N/A,,Overcast,350,2013-11-25 21:16:00
12:36 PM,41.0,39.2,93,29.62,10.0,NNW,13.8,-,N/A,,Overcast,340,2013-11-25 21:36:00
12:56 PM,41.0,39.2,93,29.62,10.0,NNW,16.1,-,N/A,,Overcast,330,2013-11-25 21:56:00
1:16 PM,41.0,37.4,87,29.62,10.0,NNW,16.1,-,N/A,,Overcast,330,2013-11-25 22:16:00
1:36 PM,39.2,37.4,93,29.63,10.0,NNW,17.3,-,N/A,,Overcast,330,2013-11-25 22:36:00
1:56 PM,39.2,37.4,93,29.63,4.0,NNW,15.0,-,N/A,,Overcast,340,2013-11-25 22:56:00
2:16 PM,39.2,37.4,93,29.63,4.0,NNW,12.7,-,N/A,,Overcast,340,2013-11-25 23:16:00
2:36 PM,39.2,37.4,93,29.63,9.0,North,13.8,-,N/A,,Overcast,350,2013-11-25 23:36:00
2:56 PM,39.2,37.4,93,29.64,8.0,NNW,13.8,-,N/A,,Overcast,340,2013-11-25 23:56:00
3:16 PM,39.2,37.4,93,29.64,9.0,NNW,13.8,-,N/A,,Overcast,340,2013-11-26 00:16:00
3:36 PM,39.2,37.4,93,29.64,9.0,NNW,15.0,-,N/A,,Overcast,340,2013-11-26 00:36:00
3:56 PM,39.2,37.4,93,29.65,10.0,NNW,15.0,-,N/A,,Overcast,340,2013-11-26 00:56:00
4:16 PM,39.2,37.4,93,29.65,10.0,North,13.8,-,N/A,,Overcast,350,2013-11-26 01:16:00
4:36 PM,39.2,37.4,93,29.66,10.0,NNW,16.1,-,N/A,,Overcast,340,2013-11-26 01:36:00
4:56 PM,39.2,37.4,93,29.67,10.0,NNW,13.8,-,N/A,,Overcast,340,2013-11-26 01:56:00
5:16 PM,37.4,37.4,100,29.68,8.0,North,17.3,-,N/A,,Overcast,350,2013-11-26 02:16:00
5:36 PM,37.4,35.6,93,29.68,8.0,NNW,15.0,-,N/A,,Overcast,340,2013-11-26 02:36:00
5:56 PM,37.4,35.6,93,29.68,8.0,NNW,15.0,-,N/A,,Overcast,340,2013-11-26 02:56:00
6:16 PM,37.4,35.6,93,29.69,8.0,NNW,16.1,-,N/A,,Overcast,340,2013-11-26 03:16:00
6:36 PM,37.4,35.6,93,29.70,8.0,NNW,15.0,-,N/A,,Overcast,340,2013-11-26 03:36:00
6:56 PM,37.4,35.6,93,29.71,8.0,NNW,17.3,-,N/A,,Overcast,340,2013-11-26 03:56:00
7:16 PM,37.4,35.6,93,29.71,8.0,NNW,18.4,-,N/A,,Overcast,340,2013-11-26 04:16:00
7:36 PM,37.4,35.6,93,29.72,8.0,NNW,16.1,-,N/A,,Overcast,340,2013-11-26 04:36:00
7:56 PM,37.4,35.6,93,29.73,8.0,NNW,15.0,-,N/A,,Overcast,340,2013-11-26 04:56:00
8:16 PM,37.4,35.6,93,29.74,10.0,NNW,17.3,-,N/A,,Overcast,330,2013-11-26 05:16:00
8:36 PM,35.6,33.8,93,29.74,10.0,NNW,15.0,-,N/A,,Overcast,330,2013-11-26 05:36:00
8:56 PM,35.6,35.6,100,29.75,10.0,NNW,13.8,-,N/A,,Overcast,330,2013-11-26 05:56:00
9:16 PM,35.6,35.6,100,29.76,10.0,NNW,12.7,-,N/A,,Overcast,330,2013-11-26 06:16:00
9:36 PM,35.6,35.6,100,29.76,8.0,NNW,13.8,-,N/A,,Overcast,330,2013-11-26 06:36:00
9:56 PM,35.6,35.6,100,29.77,6.0,NNW,13.8,-,N/A,,Overcast,330,2013-11-26 06:56:00
10:16 PM,35.6,35.6,100,29.77,8.0,NW,11.5,-,N/A,,Overcast,320,2013-11-26 07:16:00
10:36 PM,35.6,33.8,93,29.78,9.0,NNW,11.5,-,N/A,,Overcast,340,2013-11-26 07:36:00
10:56 PM,37.4,35.6,93,29.78,9.0,NNW,18.4,-,N/A,,Overcast,330,2013-11-26 07:56:00
11:16 PM,37.4,35.6,93,29.79,10.0,NNW,17.3,-,N/A,,Overcast,340,2013-11-26 08:16:00
11:36 PM,37.4,35.6,93,29.80,10.0,NNW,18.4,-,N/A,,Overcast,340,2013-11-26 08:36:00
11:56 PM,37.4,35.6,93,29.81,9.0,NNW,12.7,-,N/A,,Overcast,330,2013-11-26 08:56:00